ROMMA est une association bénévole à but non lucratif. Votre soutien est indispensable : ADHERER à ROMMA ou FAIRE un DON

Lans-en-Vercors - (38, Isère)

Vercors (990 m)   Longitude: 5° 33' 59'' E   Latitude: 45° 6' 3'' N Station partenaire n°80
 

Détail journalier du     <<     >>

Température Humidité Vent Dir Rafale Dir. rafale Ensol.
Heure (°C) (%) (km/h) (km/h) (min)
01:00 8.59705NNE0
02:00 7.9972NNE13NNE0
03:00 7.39706NNE0
04:00 6.497000
05:00 7.3972NNE19N0
06:00 9.19713NNE29NNE0
07:00 9.29614NNE26N0
08:00 9.69611NNE24NE0
09:00 10.39512NNE27NNE0
10:00 10.99213NNE31NNE0
11:00 12.49112NNE24NNE0
12:00 15.2839NNE24NNE30
13:00 15.68313NNE29NNE60
14:00 16.08016NNE34NE60
15:00 16.78114NNE26NNE60
16:00 15.88115NNE29NE60
17:00 15.68119NNE34NNE60
18:00 15.68319NNE32NNE60
19:00 15.48218NNE32NNE60
20:00 12.98816NNE31NNE60
21:00 12.88913NNE26NNE0
22:00 12.2917NNE19NNE0
23:00 12.0922NNE15NNE0
minuit 12.690011NNE0

Graphique du 21-08-2019

 

Serveur OMMA